Weather History for Black River Falls, WI

Change the Weather History Date:

Saturday, October 5, 2013

  Actual Average (KLSE) Record (KLSE)
Temperature  
Mean Temperature 57 °F 54 °F  
Max Temperature 68 °F 65 °F 86 °F (1922)
Min Temperature 45 °F 44 °F 27 °F (1935)
Degree Days  
Heating Degree Days 8 11  
Month to date heating degree days 52  
Since 1 July heating degree days 212  
Cooling Degree Days 0 1  
Month to date cooling degree days 5  
Year to date cooling degree days 779  
Growing Degree Days 7 (Base 50)    
Moisture  
Dew Point 60 °F    
Average Humidity 99    
Maximum Humidity 100    
Minimum Humidity 92    
Precipitation  
Precipitation 0.95 in 0.09 in 1.04 in (2013)
Month to date precipitation 0.44  
Year to date precipitation 27.96  
Snow  
Snow 0.00 in 0.00 in T in (1991)
Month to date snowfall 0.0  
Since 1 July snowfall 0.0  
Snow Depth -    
Sea Level Pressure  
Sea Level Pressure 29.81 in    
Wind  
Wind Speed 7 mph (East)    
Max Wind Speed 15 mph    
Max Gust Speed 21 mph    
Visibility 8 miles    
Events Rain , Thunderstorm    
T = Trace of Precipitation, MM = Missing Value Source: NWS Daily Summary

Daily Weather History Graph

Daily Weather History Graph

Search for Another Location

Airport:

Trip Planner

Search our weather history database for the weather conditions in past years. The results will help you decide how hot, cold, wet, or windy it might be!

Date:

Astronomy

Oct. 05, 2013 Rise Set
Actual Time 7:06 AM CDT 6:36 PM CDT
Civil Twilight 6:37 AM CDT 7:05 PM CDT
Nautical Twilight 6:03 AM CDT 7:38 PM CDT
Astronomical Twilight 5:29 AM CDT 8:12 PM CDT
Moon 7:48 AM CDT (10/5) 6:51 PM CDT (10/5)
Length of Visible Light 12h 27m
Length of Day
11h 30m
New Moon, 1% of the Moon is Illuminated
Oct 5
New Moon
Oct 11
First Quarter
Oct 18
Full
Oct 26
Last Quarter
Nov 3
New

Hourly Weather History & Observations

Time (CDT) Temp. Dew Point Humidity Pressure Visibility Wind Dir Wind Speed Gust Speed Precip Events Conditions
12:15 AM 57.2 °F 57.2 °F 100% 29.91 in 4.0 mi ENE 9.2 mph 19.6 mph 0.14 in Rain , Thunderstorm Light Thunderstorms and Rain
12:35 AM 57.4 °F 57.4 °F 100% 29.91 in 7.0 mi East 10.4 mph 17.3 mph 0.20 in Rain , Thunderstorm Light Thunderstorms and Rain
12:55 AM 57.6 °F 57.6 °F 100% 29.90 in 5.0 mi East 15.0 mph - 0.27 in Rain Heavy Rain
1:15 AM 57.7 °F 57.7 °F 100% 29.90 in 10.0 mi East 11.5 mph 18.4 mph 0.01 in Rain , Thunderstorm Light Thunderstorms and Rain
1:35 AM 58.1 °F 58.1 °F 100% 29.86 in 5.0 mi ENE 13.8 mph 20.7 mph 0.06 in Rain , Thunderstorm Heavy Thunderstorms and Rain
1:55 AM 58.1 °F 58.1 °F 100% 29.88 in 10.0 mi NE 9.2 mph 12.7 mph 0.09 in Rain , Thunderstorm Light Thunderstorms and Rain
2:15 AM 58.1 °F 58.1 °F 100% 29.91 in 10.0 mi North 6.9 mph - 0.02 in Rain , Thunderstorm Heavy Thunderstorms and Rain
2:35 AM 58.3 °F 58.3 °F 100% 29.96 in 0.8 mi WNW 9.2 mph - 0.35 in Rain , Thunderstorm Heavy Thunderstorms and Rain
2:55 AM 58.1 °F 58.1 °F 100% 29.92 in 5.0 mi ENE 13.8 mph - 0.42 in Rain Heavy Rain
3:15 AM 57.7 °F 57.7 °F 100% 29.91 in 10.0 mi ENE 10.4 mph - 0.03 in Rain Rain
3:35 AM 57.6 °F 57.6 °F 100% 29.88 in 7.0 mi ENE 12.7 mph - 0.07 in Rain Heavy Rain
3:55 AM 57.6 °F 57.6 °F 100% 29.87 in 10.0 mi East 10.4 mph 16.1 mph 0.08 in Rain Light Rain
4:15 AM 57.7 °F 57.7 °F 100% 29.86 in 10.0 mi East 11.5 mph 20.7 mph N/A   Mostly Cloudy
4:35 AM 57.7 °F 57.7 °F 100% 29.88 in 10.0 mi East 6.9 mph - N/A   Mostly Cloudy
4:55 AM 57.6 °F 57.6 °F 100% 29.87 in 10.0 mi East 6.9 mph - N/A   Overcast
5:15 AM 57.6 °F 57.6 °F 100% 29.86 in 10.0 mi ENE 6.9 mph - N/A   Overcast
5:35 AM 57.6 °F 57.6 °F 100% 29.86 in 10.0 mi East 5.8 mph - N/A   Overcast
5:55 AM 58.1 °F 58.1 °F 100% 29.86 in 10.0 mi East 5.8 mph - N/A   Overcast
6:15 AM 58.3 °F 58.3 °F 100% 29.86 in 10.0 mi East 5.8 mph - N/A   Overcast
6:35 AM 58.5 °F 58.5 °F 100% 29.85 in 10.0 mi ESE 5.8 mph - N/A   Overcast
6:55 AM 59.0 °F 59.0 °F 100% 29.84 in 10.0 mi East 4.6 mph - N/A   Overcast
7:15 AM 59.0 °F 59.0 °F 100% 29.84 in 10.0 mi ESE 6.9 mph - N/A   Overcast
7:35 AM 59.2 °F 59.2 °F 100% 29.84 in 10.0 mi East 4.6 mph - N/A   Overcast
7:55 AM 59.4 °F 59.4 °F 100% 29.84 in 5.0 mi ESE 3.5 mph - 0.03 in Rain Heavy Rain
8:15 AM 59.9 °F 59.9 °F 100% 29.84 in 10.0 mi Calm Calm - N/A Rain Light Rain
8:35 AM 60.3 °F 60.3 °F 100% 29.84 in 10.0 mi Calm Calm - N/A Rain Light Rain
8:55 AM 60.8 °F 60.8 °F 100% 29.84 in 10.0 mi Calm Calm - 0.01 in Rain Light Rain
9:15 AM 61.0 °F 61.0 °F 100% 29.85 in 10.0 mi East 5.8 mph - N/A   Overcast
9:35 AM 61.7 °F 61.7 °F 100% 29.84 in 10.0 mi East 5.8 mph - N/A Rain Light Rain
9:55 AM 61.7 °F 61.7 °F 100% 29.85 in 10.0 mi East 4.6 mph - N/A   Overcast
10:15 AM 61.7 °F 61.7 °F 100% 29.86 in 10.0 mi ESE 4.6 mph - N/A   Overcast
10:35 AM 61.9 °F 61.9 °F 100% 29.86 in 7.0 mi ESE 3.5 mph - N/A   Overcast
10:55 AM 62.1 °F 62.1 °F 100% 29.85 in 5.0 mi East 6.9 mph - N/A   Overcast
11:15 AM 62.2 °F 62.2 °F 100% 29.84 in 5.0 mi East 3.5 mph - N/A   Overcast
11:55 AM 62.8 °F 62.8 °F 100% 29.85 in 4.0 mi East 3.5 mph - N/A   Overcast
12:15 PM 63.5 °F 63.5 °F 100% 29.84 in 4.0 mi East 3.5 mph - N/A   Overcast
12:35 PM 63.7 °F 63.7 °F 100% 29.82 in 4.0 mi East 4.6 mph - N/A   Overcast
12:55 PM 64.6 °F 64.6 °F 100% 29.82 in 5.0 mi ESE 4.6 mph - N/A   Overcast
1:15 PM 65.1 °F 65.1 °F 100% 29.82 in 5.0 mi ESE 3.5 mph - N/A   Overcast
1:35 PM 65.7 °F 65.7 °F 100% 29.81 in 5.0 mi ESE 5.8 mph - N/A   Overcast
1:55 PM 66.2 °F 65.8 °F 99% 29.79 in 5.0 mi East 8.1 mph - N/A   Overcast
2:15 PM 66.2 °F 66.2 °F 100% 29.78 in 5.0 mi East 4.6 mph - N/A Rain Light Rain
2:35 PM 65.7 °F 65.7 °F 100% 29.78 in 4.0 mi Calm Calm - N/A Rain Light Rain
2:55 PM 66.2 °F 66.2 °F 100% 29.77 in 4.0 mi Calm Calm - N/A   Overcast
3:15 PM 67.1 °F 67.1 °F 100% 29.76 in 5.0 mi East 3.5 mph - N/A   Overcast
3:35 PM 67.5 °F 67.1 °F 99% 29.75 in 7.0 mi NE 3.5 mph - N/A   Overcast
3:55 PM 67.5 °F 67.1 °F 99% 29.74 in 7.0 mi ENE 4.6 mph - N/A   Overcast
4:15 PM 68.4 °F 67.8 °F 98% 29.73 in 7.0 mi East 3.5 mph - N/A   Overcast
4:35 PM 68.4 °F 68.0 °F 99% 29.73 in 5.0 mi Calm Calm - 0.01 in Rain Heavy Rain
4:55 PM 68.2 °F 68.2 °F 100% 29.72 in 7.0 mi East 6.9 mph - 0.01 in   Overcast
5:15 PM 68.2 °F 68.2 °F 100% 29.72 in 7.0 mi SSW 5.8 mph - N/A   Overcast
5:35 PM 67.5 °F 67.5 °F 100% 29.72 in 5.0 mi SW 6.9 mph - N/A   Overcast
5:55 PM 67.1 °F 66.7 °F 99% 29.72 in 10.0 mi SW 4.6 mph - N/A   Overcast
6:15 PM 66.2 °F 64.4 °F 94% 29.72 in 10.0 mi SW 6.9 mph - N/A   Overcast
6:35 PM 64.9 °F 63.7 °F 96% 29.71 in 10.0 mi SW 6.9 mph - N/A   Mostly Cloudy
6:55 PM 64.0 °F 63.5 °F 98% 29.73 in 10.0 mi SW 6.9 mph - N/A   Mostly Cloudy
7:15 PM 63.0 °F 60.6 °F 92% 29.74 in 10.0 mi WSW 8.1 mph 16.1 mph N/A   Overcast
7:35 PM 61.9 °F 59.9 °F 93% 29.73 in 10.0 mi WSW 5.8 mph - N/A   Overcast
7:55 PM 61.7 °F 59.9 °F 94% 29.73 in 10.0 mi SW 3.5 mph - N/A   Overcast
8:15 PM 60.4 °F 60.1 °F 99% 29.73 in 10.0 mi WSW 3.5 mph - 0.01 in Rain Light Rain
8:35 PM 60.1 °F 59.9 °F 99% 29.74 in 7.0 mi West 6.9 mph - 0.02 in Rain Rain
8:55 PM 57.6 °F 56.7 °F 97% 29.76 in 7.0 mi WNW 6.9 mph - 0.04 in Rain Light Rain
9:15 PM 56.3 °F 55.9 °F 99% 29.76 in 10.0 mi West 3.5 mph - N/A   Overcast
9:35 PM 55.9 °F 55.6 °F 99% 29.76 in 10.0 mi Calm Calm - N/A   Overcast
9:55 PM 55.0 °F 55.0 °F 100% 29.77 in 10.0 mi SW 3.5 mph - N/A   Overcast
10:15 PM 54.3 °F 54.3 °F 100% 29.77 in 10.0 mi Calm Calm - N/A   Mostly Cloudy
10:35 PM 52.2 °F 52.2 °F 100% 29.77 in 10.0 mi Calm Calm - N/A   Scattered Clouds
10:55 PM 49.3 °F 49.3 °F 100% 29.77 in 5.0 mi Calm Calm - N/A   Clear
11:15 PM 47.1 °F 47.1 °F 100% 29.76 in 4.0 mi Calm Calm - N/A   Clear
11:35 PM 46.0 °F 46.0 °F 100% 29.76 in 0.8 mi Calm Calm - N/A   Mist
11:55 PM 45.5 °F 45.5 °F 100% 29.76 in 4.0 mi Calm Calm - N/A   Clear